"Sample Date","Sample Time","Sensor Name","Sample Value","Units","Flow Rate","Sample Interval","Sample Volume","Laser Status","Number Channels","Micron Size 0","Counts/Channel 0","Micron Size 1","Counts/Channel 1","Micron Size 2","Counts/Channel 2","Micron Size 3","Counts/Channel 3","Micron Size 4","Counts/Channel 4","Micron Size 5","Counts/Channel 5","Micron Size 6","Counts/Channel 6","Micron Size 7","Counts/Channel 7","Micron Size 8","Counts/Channel 8","Micron Size 9","Counts/Channel 9","Micron Size 10","Counts/Channel 10","Micron Size 11","Counts/Channel 11","Micron Size 12","Counts/Channel 12","Micron Size 13","Counts/Channel 13","Micron Size 14","Counts/Channel 14","Micron Size 15","Counts/Channel 15","Micron Size 16","Counts/Channel 16","Micron Size 17","Counts/Channel 17","Micron Size 18","Counts/Channel 18","Micron Size 19","Counts/Channel 19","Micron Size 20","Counts/Channel 20","Micron Size 21","Counts/Channel 21","Micron Size 22","Counts/Channel 22","Micron Size 23","Counts/Channel 23","Micron Size 24","Counts/Channel 24","Micron Size 25","Counts/Channel 25","Micron Size 26","Counts/Channel 26","Micron Size 27","Counts/Channel 27","Micron Size 28","Counts/Channel 28","Micron Size 29","Counts/Channel 29","Micron Size 30","Counts/Channel 30","Micron Size 31","Counts/Channel 31"
"07/11/06","09:00:04","AMMA06",80084.000,"cc",27469.207,6.00,2746.921,1,6,0.100,40629.000,0.200,32299.000,0.300,6241.000,0.500,642.000,1.000,273.000,5.000,0
"07/11/06","09:00:10","AMMA06",79892.000,"cc",28573.775,6.00,2857.378,1,6,0.100,41041.000,0.200,31745.000,0.300,6192.000,0.500,611.000,1.000,301.000,5.000,2.000
"07/11/06","09:00:16","AMMA06",81586.000,"cc",27960.971,6.00,2796.097,1,6,0.100,43268.000,0.200,30934.000,0.300,6263.000,0.500,720.000,1.000,339.000,5.000,62.000
"07/11/06","09:00:22","AMMA06",80855.000,"cc",27252.336,6.00,2725.234,1,6,0.100,40296.000,0.200,33338.000,0.300,6361.000,0.500,646.000,1.000,214.000,5.000,0
"07/11/06","09:00:28","AMMA06",80228.000,"cc",28145.289,6.00,2814.529,1,6,0.100,39426.000,0.200,33544.000,0.300,6510.000,0.500,548.000,1.000,200.000,5.000,0
"07/11/06","09:00:34","AMMA06",79618.000,"cc",28629.941,6.00,2862.994,1,6,0.100,39737.000,0.200,32780.000,0.300,6397.000,0.500,540.000,1.000,164.000,5.000,0
"07/11/06","09:00:40","AMMA06",79300.000,"cc",28709.332,6.00,2870.933,1,6,0.100,39632.000,0.200,32656.000,0.300,6240.000,0.500,552.000,1.000,220.000,5.000,0
"07/11/06","09:00:46","AMMA06",79224.000,"cc",28681.981,6.00,2868.198,1,6,0.100,40177.000,0.200,32215.000,0.300,6115.000,0.500,530.000,1.000,187.000,5.000,0
"07/11/06","09:00:52","AMMA06",79495.000,"cc",28624.693,6.00,2862.470,1,6,0.100,40516.000,0.200,32166.000,0.300,6080.000,0.500,540.000,1.000,193.000,5.000,0
"07/11/06","09:00:58","AMMA06",78858.000,"cc",28513.238,6.00,2851.324,1,6,0.100,40573.000,0.200,31540.000,0.300,5978.000,0.500,546.000,1.000,221.000,5.000,0
"07/11/06","09:01:04","AMMA06",78776.000,"cc",28424.359,6.00,2842.436,1,6,0.100,40474.000,0.200,31507.000,0.300,6017.000,0.500,551.000,1.000,227.000,5.000,0
"07/11/06","09:01:10","AMMA06",79507.000,"cc",28353.707,6.00,2835.371,1,6,0.100,41102.000,0.200,31187.000,0.300,6263.000,0.500,667.000,1.000,288.000,5.000,0
"07/11/06","09:01:16","AMMA06",78334.000,"cc",28315.996,6.00,2831.600,1,6,0.100,40706.000,0.200,30568.000,0.300,6154.000,0.500,611.000,1.000,295.000,5.000,0
"07/11/06","09:01:22","AMMA06",79075.000,"cc",28349.793,6.00,2834.980,1,6,0.100,41544.000,0.200,30613.000,0.300,6066.000,0.500,601.000,1.000,251.000,5.000,0
"07/11/06","09:01:28","AMMA06",79366.000,"cc",28328.627,6.00,2832.863,1,6,0.100,41837.000,0.200,30286.000,0.300,6167.000,0.500,754.000,1.000,322.000,5.000,0
"07/11/06","09:01:34","AMMA06",78042.000,"cc",28431.375,6.00,2843.138,1,6,0.100,41189.000,0.200,30274.000,0.300,5829.000,0.500,514.000,1.000,236.000,5.000,0
"07/11/06","09:01:40","AMMA06",77315.000,"cc",28537.965,6.00,2853.797,1,6,0.100,41364.000,0.200,29653.000,0.300,5608.000,0.500,461.000,1.000,229.000,5.000,0
"07/11/06","09:01:46","AMMA06",77078.000,"cc",28399.949,6.00,2839.995,1,6,0.100,40640.000,0.200,29784.000,0.300,5777.000,0.500,604.000,1.000,273.000,5.000,0
"07/11/06","09:01:52","AMMA06",76308.000,"cc",28630.775,6.00,2863.078,1,6,0.100,40794.000,0.200,29028.000,0.300,5739.000,0.500,515.000,1.000,232.000,5.000,0
"07/11/06","09:01:58","AMMA06",75944.000,"cc",28541.361,6.00,2854.136,1,6,0.100,40399.000,0.200,28966.000,0.300,5733.000,0.500,569.000,1.000,277.000,5.000,0
"07/11/06","09:02:04","AMMA06",75671.000,"cc",28356.109,6.00,2835.611,1,6,0.100,40193.000,0.200,28990.000,0.300,5699.000,0.500,562.000,1.000,227.000,5.000,0
"07/11/06","09:02:10","AMMA06",74954.000,"cc",28508.506,6.00,2850.851,1,6,0.100,39987.000,0.200,28410.000,0.300,5735.000,0.500,548.000,1.000,274.000,5.000,0
"07/11/06","09:02:16","AMMA06",74729.000,"cc",28425.553,6.00,2842.555,1,6,0.100,39506.000,0.200,28586.000,0.300,5838.000,0.500,574.000,1.000,224.000,5.000,1.000
"07/11/06","09:02:22","AMMA06",74444.000,"cc",28339.018,6.00,2833.902,1,6,0.100,39756.000,0.200,28104.000,0.300,5682.000,0.500,603.000,1.000,299.000,5.000,0
"07/11/06","09:02:28","AMMA06",74169.000,"cc",28302.135,6.00,2830.214,1,6,0.100,39664.000,0.200,28002.000,0.300,5645.000,0.500,584.000,1.000,274.000,5.000,0
"07/11/06","09:02:34","AMMA06",74617.000,"cc",28359.141,6.00,2835.914,1,6,0.100,39705.000,0.200,28203.000,0.300,5801.000,0.500,637.000,1.000,271.000,5.000,0
"07/11/06","09:02:40","AMMA06",73923.000,"cc",28236.998,6.00,2823.700,1,6,0.100,39719.000,0.200,27960.000,0.300,5523.000,0.500,509.000,1.000,212.000,5.000,0
"07/11/06","09:02:46","AMMA06",74066.000,"cc",28328.857,6.00,2832.886,1,6,0.100,39831.000,0.200,27963.000,0.300,5585.000,0.500,466.000,1.000,221.000,5.000,0
"07/11/06","09:02:52","AMMA06",73637.000,"cc",28336.352,6.00,2833.635,1,6,0.100,39688.000,0.200,27824.000,0.300,5401.000,0.500,510.000,1.000,213.000,5.000,1.000
"07/11/06","09:02:58","AMMA06",73764.000,"cc",28337.236,6.00,2833.724,1,6,0.100,39836.000,0.200,27664.000,0.300,5605.000,0.500,441.000,1.000,218.000,5.000,0
"07/11/06","09:03:04","AMMA06",74040.000,"cc",28311.338,6.00,2831.134,1,6,0.100,40018.000,0.200,27993.000,0.300,5376.000,0.500,471.000,1.000,182.000,5.000,0
"07/11/06","09:03:10","AMMA06",73757.000,"cc",28319.385,6.00,2831.939,1,6,0.100,39798.000,0.200,27898.000,0.300,5420.000,0.500,440.000,1.000,201.000,5.000,0
"07/11/06","09:03:16","AMMA06",73794.000,"cc",28305.076,6.00,2830.508,1,6,0.100,39900.000,0.200,27652.000,0.300,5593.000,0.500,468.000,1.000,181.000,5.000,0
"07/11/06","09:03:22","AMMA06",74345.000,"cc",28319.451,6.00,2831.945,1,6,0.100,40368.000,0.200,27632.000,0.300,5576.000,0.500,519.000,1.000,250.000,5.000,0
"07/11/06","09:03:28","AMMA06",73758.000,"cc",28292.236,6.00,2829.224,1,6,0.100,39934.000,0.200,27731.000,0.300,5410.000,0.500,482.000,1.000,201.000,5.000,0
"07/11/06","09:03:34","AMMA06",75641.000,"cc",28333.012,6.00,2833.301,1,6,0.100,40636.000,0.200,27851.000,0.300,5999.000,0.500,750.000,1.000,405.000,5.000,0
"07/11/06","09:03:40","AMMA06",74143.000,"cc",28369.799,6.00,2836.980,1,6,0.100,40588.000,0.200,27518.000,0.300,5350.000,0.500,453.000,1.000,234.000,5.000,0
"07/11/06","09:03:46","AMMA06",73673.000,"cc",28292.363,6.00,2829.237,1,6,0.100,40236.000,0.200,27569.000,0.300,5251.000,0.500,422.000,1.000,195.000,5.000,0
"07/11/06","09:03:52","AMMA06",73636.000,"cc",28353.936,6.00,2835.394,1,6,0.100,40111.000,0.200,27612.000,0.300,5278.000,0.500,434.000,1.000,200.000,5.000,1.000
"07/11/06","09:03:58","AMMA06",73807.000,"cc",28286.918,6.00,2828.692,1,6,0.100,40225.000,0.200,27555.000,0.300,5418.000,0.500,401.000,1.000,208.000,5.000,0
"07/11/06","09:04:04","AMMA06",73378.000,"cc",28320.527,6.00,2832.053,1,6,0.100,39874.000,0.200,27434.000,0.300,5428.000,0.500,454.000,1.000,188.000,5.000,0
"07/11/06","09:04:10","AMMA06",75043.000,"cc",28295.291,6.00,2829.529,1,6,0.100,40312.000,0.200,28073.000,0.300,5750.000,0.500,583.000,1.000,325.000,5.000,0
"07/11/06","09:04:16","AMMA06",75957.000,"cc",28270.967,6.00,2827.097,1,6,0.100,40888.000,0.200,28167.000,0.300,5753.000,0.500,764.000,1.000,385.000,5.000,0
"07/11/06","09:04:22","AMMA06",74254.000,"cc",28339.111,6.00,2833.911,1,6,0.100,40104.000,0.200,27818.000,0.300,5519.000,0.500,541.000,1.000,272.000,5.000,0
"07/11/06","09:04:28","AMMA06",73704.000,"cc",28344.375,6.00,2834.438,1,6,0.100,40120.000,0.200,27591.000,0.300,5295.000,0.500,465.000,1.000,232.000,5.000,1.000
"07/11/06","09:04:34","AMMA06",73915.000,"cc",28290.008,6.00,2829.001,1,6,0.100,40193.000,0.200,27455.000,0.300,5440.000,0.500,573.000,1.000,254.000,5.000,0
"07/11/06","09:04:40","AMMA06",73469.000,"cc",28289.791,6.00,2828.979,1,6,0.100,39849.000,0.200,27625.000,0.300,5282.000,0.500,483.000,1.000,230.000,5.000,0
"07/11/06","09:04:46","AMMA06",73929.000,"cc",28349.502,6.00,2834.950,1,6,0.100,39918.000,0.200,27915.000,0.300,5319.000,0.500,515.000,1.000,262.000,5.000,0
"07/11/06","09:04:52","AMMA06",74089.000,"cc",28324.301,6.00,2832.430,1,6,0.100,40296.000,0.200,27591.000,0.300,5373.000,0.500,579.000,1.000,250.000,5.000,0
"07/11/06","09:04:58","AMMA06",75192.000,"cc",28300.625,6.00,2830.063,1,6,0.100,40649.000,0.200,27895.000,0.300,5665.000,0.500,658.000,1.000,325.000,5.000,0
"07/11/06","09:05:04","AMMA06",73469.000,"cc",28276.113,6.00,2827.612,1,6,0.100,39632.000,0.200,27811.000,0.300,5355.000,0.500,455.000,1.000,216.000,5.000,0
"07/11/06","09:05:10","AMMA06",74638.000,"cc",28366.586,6.00,2836.659,1,6,0.100,40638.000,0.200,27822.000,0.300,5401.000,0.500,507.000,1.000,270.000,5.000,0
"07/11/06","09:05:16","AMMA06",73875.000,"cc",28351.576,6.00,2835.158,1,6,0.100,40001.000,0.200,27683.000,0.300,5480.000,0.500,465.000,1.000,246.000,5.000,0
"07/11/06","09:05:22","AMMA06",74278.000,"cc",28358.816,6.00,2835.882,1,6,0.100,40206.000,0.200,27849.000,0.300,5535.000,0.500,465.000,1.000,222.000,5.000,1.000
"07/11/06","09:05:28","AMMA06",74885.000,"cc",28290.654,6.00,2829.066,1,6,0.100,40251.000,0.200,28120.000,0.300,5641.000,0.500,604.000,1.000,269.000,5.000,0
"07/11/06","09:05:34","AMMA06",74165.000,"cc",28294.727,6.00,2829.473,1,6,0.100,40150.000,0.200,27698.000,0.300,5539.000,0.500,533.000,1.000,245.000,5.000,0
"07/11/06","09:05:40","AMMA06",73860.000,"cc",28288.424,6.00,2828.843,1,6,0.100,40150.000,0.200,27671.000,0.300,5358.000,0.500,480.000,1.000,201.000,5.000,0
"07/11/06","09:05:46","AMMA06",73675.000,"cc",28351.979,6.00,2835.198,1,6,0.100,39971.000,0.200,27696.000,0.300,5418.000,0.500,420.000,1.000,170.000,5.000,0
"07/11/06","09:05:52","AMMA06",73639.000,"cc",28307.289,6.00,2830.729,1,6,0.100,40015.000,0.200,27679.000,0.300,5391.000,0.500,396.000,1.000,158.000,5.000,0
"07/11/06","09:05:58","AMMA06",73972.000,"cc",28264.744,6.00,2826.475,1,6,0.100,40093.000,0.200,27937.000,0.300,5356.000,0.500,402.000,1.000,183.000,5.000,1.000
"07/11/06","09:06:04","AMMA06",73906.000,"cc",28351.279,6.00,2835.128,1,6,0.100,40281.000,0.200,27855.000,0.300,5181.000,0.500,402.000,1.000,187.000,5.000,0
"07/11/06","09:06:10","AMMA06",73279.000,"cc",28349.273,6.00,2834.928,1,6,0.100,39849.000,0.200,27448.000,0.300,5406.000,0.500,404.000,1.000,172.000,5.000,0
"07/11/06","09:06:16","AMMA06",73864.000,"cc",28323.656,6.00,2832.366,1,6,0.100,40222.000,0.200,27694.000,0.300,5336.000,0.500,396.000,1.000,216.000,5.000,0
"07/11/06","09:06:22","AMMA06",74094.000,"cc",28315.762,6.00,2831.576,1,6,0.100,40533.000,0.200,27504.000,0.300,5353.000,0.500,485.000,1.000,219.000,5.000,0
"07/11/06","09:06:28","AMMA06",73695.000,"cc",28298.998,6.00,2829.900,1,6,0.100,40098.000,0.200,27494.000,0.300,5425.000,0.500,469.000,1.000,209.000,5.000,0
"07/11/06","09:06:34","AMMA06",74412.000,"cc",28276.865,6.00,2827.687,1,6,0.100,40845.000,0.200,27575.000,0.300,5379.000,0.500,416.000,1.000,197.000,5.000,0
"07/11/06","09:06:40","AMMA06",73791.000,"cc",28315.846,6.00,2831.585,1,6,0.100,40133.000,0.200,27652.000,0.300,5326.000,0.500,461.000,1.000,219.000,5.000,0
"07/11/06","09:06:46","AMMA06",74365.000,"cc",28337.920,6.00,2833.792,1,6,0.100,40351.000,0.200,27716.000,0.300,5455.000,0.500,542.000,1.000,301.000,5.000,0
"07/11/06","09:06:52","AMMA06",72950.000,"cc",28372.020,6.00,2837.202,1,6,0.100,39929.000,0.200,27223.000,0.300,5178.000,0.500,429.000,1.000,191.000,5.000,0
"07/11/06","09:06:58","AMMA06",73478.000,"cc",28302.240,6.00,2830.224,1,6,0.100,40162.000,0.200,27385.000,0.300,5251.000,0.500,452.000,1.000,228.000,5.000,0
"07/11/06","09:07:04","AMMA06",73512.000,"cc",28297.918,6.00,2829.792,1,6,0.100,40332.000,0.200,27289.000,0.300,5230.000,0.500,448.000,1.000,213.000,5.000,0
"07/11/06","09:07:10","AMMA06",72786.000,"cc",28283.268,6.00,2828.327,1,6,0.100,40026.000,0.200,26904.000,0.300,5218.000,0.500,443.000,1.000,195.000,5.000,0
"07/11/06","09:07:16","AMMA06",72446.000,"cc",28334.754,6.00,2833.476,1,6,0.100,39636.000,0.200,27067.000,0.300,5106.000,0.500,428.000,1.000,209.000,5.000,0
"07/11/06","09:07:22","AMMA06",73347.000,"cc",28303.881,6.00,2830.388,1,6,0.100,40277.000,0.200,27150.000,0.300,5315.000,0.500,438.000,1.000,167.000,5.000,0
"07/11/06","09:07:28","AMMA06",73752.000,"cc",28362.504,6.00,2836.251,1,6,0.100,40322.000,0.200,27410.000,0.300,5349.000,0.500,456.000,1.000,215.000,5.000,0
"07/11/06","09:07:34","AMMA06",73203.000,"cc",28352.166,6.00,2835.217,1,6,0.100,40430.000,0.200,26840.000,0.300,5270.000,0.500,458.000,1.000,205.000,5.000,0
"07/11/06","09:07:40","AMMA06",73844.000,"cc",28340.381,6.00,2834.038,1,6,0.100,40459.000,0.200,27254.000,0.300,5433.000,0.500,484.000,1.000,213.000,5.000,1.000
"07/11/06","09:07:46","AMMA06",72832.000,"cc",28302.934,6.00,2830.294,1,6,0.100,39837.000,0.200,27008.000,0.300,5316.000,0.500,468.000,1.000,203.000,5.000,0
"07/11/06","09:07:52","AMMA06",73118.000,"cc",28322.104,6.00,2832.210,1,6,0.100,40239.000,0.200,26809.000,0.300,5316.000,0.500,506.000,1.000,248.000,5.000,0
"07/11/06","09:07:58","AMMA06",74447.000,"cc",28315.322,6.00,2831.533,1,6,0.100,40778.000,0.200,27147.000,0.300,5561.000,0.500,635.000,1.000,326.000,5.000,0
"07/11/06","09:08:04","AMMA06",73878.000,"cc",28320.277,6.00,2832.028,1,6,0.100,40239.000,0.200,27330.000,0.300,5489.000,0.500,553.000,1.000,267.000,5.000,0
"07/11/06","09:08:10","AMMA06",73106.000,"cc",28295.955,6.00,2829.596,1,6,0.100,40283.000,0.200,26860.000,0.300,5317.000,0.500,454.000,1.000,192.000,5.000,0
"07/11/06","09:08:16","AMMA06",75890.000,"cc",28368.190,6.00,2836.819,1,6,0.100,41025.000,0.200,27418.000,0.300,6039.000,0.500,944.000,1.000,464.000,5.000,0
"07/11/06","09:08:22","AMMA06",74374.000,"cc",28260.703,6.00,2826.071,1,6,0.100,40987.000,0.200,26782.000,0.300,5586.000,0.500,692.000,1.000,327.000,5.000,0
"07/11/06","09:08:28","AMMA06",76642.000,"cc",28296.332,6.00,2829.633,1,6,0.100,41398.000,0.200,27444.000,0.300,6153.000,0.500,1025.000,1.000,622.000,5.000,0
"07/11/06","09:08:34","AMMA06",75032.000,"cc",28331.738,6.00,2833.174,1,6,0.100,41020.000,0.200,27287.000,0.300,5703.000,0.500,661.000,1.000,361.000,5.000,0
"07/11/06","09:08:40","AMMA06",74524.000,"cc",28345.326,6.00,2834.533,1,6,0.100,40852.000,0.200,27180.000,0.300,5575.000,0.500,602.000,1.000,315.000,5.000,0
"07/11/06","09:08:46","AMMA06",73397.000,"cc",28339.109,6.00,2833.911,1,6,0.100,40344.000,0.200,26882.000,0.300,5311.000,0.500,600.000,1.000,259.000,5.000,1.000
"07/11/06","09:08:52","AMMA06",72899.000,"cc",28304.334,6.00,2830.434,1,6,0.100,40104.000,0.200,26862.000,0.300,5204.000,0.500,527.000,1.000,202.000,5.000,0
"07/11/06","09:08:58","AMMA06",73919.000,"cc",28326.588,6.00,2832.659,1,6,0.100,40590.000,0.200,27253.000,0.300,5416.000,0.500,439.000,1.000,221.000,5.000,0
"07/11/06","09:09:04","AMMA06",73756.000,"cc",28278.676,6.00,2827.868,1,6,0.100,40515.000,0.200,27117.000,0.300,5317.000,0.500,573.000,1.000,234.000,5.000,0
"07/11/06","09:09:10","AMMA06",72895.000,"cc",28300.650,6.00,2830.065,1,6,0.100,39664.000,0.200,27178.000,0.300,5344.000,0.500,496.000,1.000,213.000,5.000,0
"07/11/06","09:09:16","AMMA06",73548.000,"cc",28334.803,6.00,2833.481,1,6,0.100,40561.000,0.200,26910.000,0.300,5380.000,0.500,492.000,1.000,205.000,5.000,0
"07/11/06","09:09:22","AMMA06",73140.000,"cc",28295.809,6.00,2829.581,1,6,0.100,40231.000,0.200,26981.000,0.300,5256.000,0.500,471.000,1.000,201.000,5.000,0
"07/11/06","09:09:28","AMMA06",73828.000,"cc",28333.315,6.00,2833.332,1,6,0.100,40413.000,0.200,27185.000,0.300,5411.000,0.500,557.000,1.000,262.000,5.000,0
"07/11/06","09:09:34","AMMA06",73588.000,"cc",28325.982,6.00,2832.598,1,6,0.100,40831.000,0.200,26672.000,0.300,5348.000,0.500,501.000,1.000,236.000,5.000,0
"07/11/06","09:09:40","AMMA06",74084.000,"cc",28294.801,6.00,2829.480,1,6,0.100,40487.000,0.200,27420.000,0.300,5421.000,0.500,524.000,1.000,232.000,5.000,0
"07/11/06","09:09:46","AMMA06",74311.000,"cc",28296.162,6.00,2829.617,1,6,0.100,40702.000,0.200,27247.000,0.300,5502.000,0.500,590.000,1.000,270.000,5.000,0
"07/11/06","09:09:52","AMMA06",74368.000,"cc",28347.793,6.00,2834.780,1,6,0.100,40408.000,0.200,27208.000,0.300,5639.000,0.500,753.000,1.000,360.000,5.000,0
"07/11/06","09:09:58","AMMA06",75405.000,"cc",28342.389,6.00,2834.239,1,6,0.100,40776.000,0.200,27565.000,0.300,5813.000,0.500,790.000,1.000,461.000,5.000,0
"07/11/06","09:10:04","AMMA06",75119.000,"cc",28280.885,6.00,2828.089,1,6,0.100,41050.000,0.200,27481.000,0.300,5630.000,0.500,646.000,1.000,312.000,5.000,0
"07/11/06","09:10:10","AMMA06",74309.000,"cc",28332.178,6.00,2833.218,1,6,0.100,40735.000,0.200,27081.000,0.300,5534.000,0.500,640.000,1.000,319.000,5.000,0
"07/11/06","09:10:16","AMMA06",74594.000,"cc",28300.414,6.00,2830.042,1,6,0.100,40512.000,0.200,27387.000,0.300,5617.000,0.500,707.000,1.000,371.000,5.000,0
"07/11/06","09:10:22","AMMA06",73763.000,"cc",28314.342,6.00,2831.434,1,6,0.100,40500.000,0.200,26974.000,0.300,5390.000,0.500,610.000,1.000,289.000,5.000,0
"07/11/06","09:10:28","AMMA06",73606.000,"cc",28310.856,6.00,2831.086,1,6,0.100,40504.000,0.200,26928.000,0.300,5312.000,0.500,574.000,1.000,288.000,5.000,0
"07/11/06","09:10:34","AMMA06",74023.000,"cc",28344.629,6.00,2834.463,1,6,0.100,40616.000,0.200,27186.000,0.300,5379.000,0.500,584.000,1.000,257.000,5.000,1.000
"07/11/06","09:10:40","AMMA06",74003.000,"cc",28299.467,6.00,2829.947,1,6,0.100,40176.000,0.200,27257.000,0.300,5555.000,0.500,672.000,1.000,343.000,5.000,0
"07/11/06","09:10:46","AMMA06",73534.000,"cc",28304.215,6.00,2830.422,1,6,0.100,40602.000,0.200,26717.000,0.300,5400.000,0.500,560.000,1.000,255.000,5.000,0
"07/11/06","09:10:52","AMMA06",74147.000,"cc",28321.342,6.00,2832.134,1,6,0.100,40405.000,0.200,27160.000,0.300,5593.000,0.500,651.000,1.000,338.000,5.000,0
"07/11/06","09:10:58","AMMA06",74414.000,"cc",28285.906,6.00,2828.591,1,6,0.100,40577.000,0.200,27323.000,0.300,5587.000,0.500,609.000,1.000,318.000,5.000,0
"07/11/06","09:11:04","AMMA06",75406.000,"cc",28290.234,6.00,2829.024,1,6,0.100,41160.000,0.200,27324.000,0.300,5798.000,0.500,728.000,1.000,396.000,5.000,0
"07/11/06","09:11:10","AMMA06",74119.000,"cc",28327.262,6.00,2832.726,1,6,0.100,40524.000,0.200,27124.000,0.300,5487.000,0.500,637.000,1.000,347.000,5.000,0
"07/11/06","09:11:16","AMMA06",74726.000,"cc",28369.236,6.00,2836.924,1,6,0.100,40881.000,0.200,27255.000,0.300,5599.000,0.500,671.000,1.000,320.000,5.000,0
"07/11/06","09:11:22","AMMA06",73509.000,"cc",28329.879,6.00,2832.988,1,6,0.100,40487.000,0.200,26745.000,0.300,5479.000,0.500,529.000,1.000,269.000,5.000,0
"07/11/06","09:11:28","AMMA06",73513.000,"cc",28307.891,6.00,2830.789,1,6,0.100,40373.000,0.200,26996.000,0.300,5338.000,0.500,553.000,1.000,253.000,5.000,0
"07/11/06","09:11:34","AMMA06",72763.000,"cc",28267.084,6.00,2826.709,1,6,0.100,40069.000,0.200,26866.000,0.300,5173.000,0.500,460.000,1.000,195.000,5.000,0
"07/11/06","09:11:40","AMMA06",72370.000,"cc",28322.436,6.00,2832.244,1,6,0.100,39989.000,0.200,26459.000,0.300,5264.000,0.500,455.000,1.000,203.000,5.000,0
"07/11/06","09:11:46","AMMA06",72928.000,"cc",28364.115,6.00,2836.412,1,6,0.100,40255.000,0.200,26632.000,0.300,5359.000,0.500,467.000,1.000,215.000,5.000,0
"07/11/06","09:11:52","AMMA06",73404.000,"cc",28255.981,6.00,2825.598,1,6,0.100,40423.000,0.200,26823.000,0.300,5440.000,0.500,469.000,1.000,249.000,5.000,0
"07/11/06","09:11:58","AMMA06",73057.000,"cc",28322.652,6.00,2832.265,1,6,0.100,39981.000,0.200,26973.000,0.300,5375.000,0.500,488.000,1.000,240.000,5.000,0
"07/11/06","09:12:04","AMMA06",72645.000,"cc",28295.414,6.00,2829.542,1,6,0.100,39869.000,0.200,26784.000,0.300,5352.000,0.500,459.000,1.000,181.000,5.000,0
"07/11/06","09:12:10","AMMA06",73240.000,"cc",28313.832,6.00,2831.383,1,6,0.100,40207.000,0.200,26857.000,0.300,5431.000,0.500,515.000,1.000,230.000,5.000,0
"07/11/06","09:12:16","AMMA06",72870.000,"cc",28357.119,6.00,2835.712,1,6,0.100,39849.000,0.200,26985.000,0.300,5284.000,0.500,516.000,1.000,236.000,5.000,0
"07/11/06","09:12:22","AMMA06",72719.000,"cc",28326.117,6.00,2832.612,1,6,0.100,39987.000,0.200,26714.000,0.300,5268.000,0.500,525.000,1.000,225.000,5.000,0
"07/11/06","09:12:28","AMMA06",72966.000,"cc",28251.029,6.00,2825.103,1,6,0.100,39673.000,0.200,27030.000,0.300,5391.000,0.500,595.000,1.000,277.000,5.000,0
"07/11/06","09:12:34","AMMA06",73678.000,"cc",28327.996,6.00,2832.800,1,6,0.100,40022.000,0.200,27100.000,0.300,5537.000,0.500,642.000,1.000,377.000,5.000,0
"07/11/06","09:12:40","AMMA06",75282.000,"cc",28273.731,6.00,2827.373,1,6,0.100,40631.000,0.200,27401.000,0.300,5924.000,0.500,867.000,1.000,459.000,5.000,0
"07/11/06","09:12:46","AMMA06",73385.000,"cc",28366.035,6.00,2836.604,1,6,0.100,40172.000,0.200,26918.000,0.300,5464.000,0.500,551.000,1.000,280.000,5.000,0
"07/11/06","09:12:52","AMMA06",76493.000,"cc",28349.313,6.00,2834.931,1,6,0.100,40985.000,0.200,27761.000,0.300,6183.000,0.500,1001.000,1.000,563.000,5.000,0
"07/11/06","09:12:58","AMMA06",74247.000,"cc",28294.863,6.00,2829.487,1,6,0.100,40091.000,0.200,27417.000,0.300,5575.000,0.500,737.000,1.000,427.000,5.000,0
"07/11/06","09:13:04","AMMA06",73470.000,"cc",28346.471,6.00,2834.647,1,6,0.100,39931.000,0.200,27197.000,0.300,5450.000,0.500,584.000,1.000,308.000,5.000,0
"07/11/06","09:13:10","AMMA06",76160.000,"cc",28325.447,6.00,2832.545,1,6,0.100,40999.000,0.200,27639.000,0.300,5971.000,0.500,982.000,1.000,569.000,5.000,0
"07/11/06","09:13:16","AMMA06",74413.000,"cc",28278.506,6.00,2827.851,1,6,0.100,40393.000,0.200,27211.000,0.300,5694.000,0.500,759.000,1.000,356.000,5.000,0
"07/11/06","09:13:22","AMMA06",72865.000,"cc",28368.295,6.00,2836.830,1,6,0.100,39661.000,0.200,27013.000,0.300,5466.000,0.500,520.000,1.000,205.000,5.000,0
"07/11/06","09:13:28","AMMA06",72763.000,"cc",28342.088,6.00,2834.209,1,6,0.100,39881.000,0.200,26942.000,0.300,5266.000,0.500,470.000,1.000,204.000,5.000,0
"07/11/06","09:13:34","AMMA06",73304.000,"cc",28279.801,6.00,2827.980,1,6,0.100,40254.000,0.200,26993.000,0.300,5301.000,0.500,503.000,1.000,253.000,5.000,0
"07/11/06","09:13:40","AMMA06",73403.000,"cc",28329.541,6.00,2832.954,1,6,0.100,40216.000,0.200,27163.000,0.300,5348.000,0.500,484.000,1.000,192.000,5.000,0
"07/11/06","09:13:46","AMMA06",73827.000,"cc",28266.309,6.00,2826.631,1,6,0.100,40192.000,0.200,27324.000,0.300,5377.000,0.500,617.000,1.000,316.000,5.000,1.000
"07/11/06","09:13:52","AMMA06",73960.000,"cc",28333.563,6.00,2833.356,1,6,0.100,40537.000,0.200,27072.000,0.300,5406.000,0.500,634.000,1.000,311.000,5.000,0
"07/11/06","09:13:58","AMMA06",73426.000,"cc",28319.793,6.00,2831.980,1,6,0.100,40499.000,0.200,26996.000,0.300,5211.000,0.500,510.000,1.000,210.000,5.000,0
"07/11/06","09:14:04","AMMA06",73389.000,"cc",28301.451,6.00,2830.145,1,6,0.100,40727.000,0.200,26686.000,0.300,5162.000,0.500,539.000,1.000,275.000,5.000,0
"07/11/06","09:14:10","AMMA06",73184.000,"cc",28326.881,6.00,2832.688,1,6,0.100,40578.000,0.200,26703.000,0.300,5184.000,0.500,498.000,1.000,221.000,5.000,0
"07/11/06","09:14:16","AMMA06",72657.000,"cc",28338.990,6.00,2833.899,1,6,0.100,40435.000,0.200,26539.000,0.300,5051.000,0.500,427.000,1.000,205.000,5.000,0